[Iaude] MPEC E53: 2019 ED1 [a=0.90,e=0.33,i=5.4,H=27.6]

mpec at mpcdb1.cfa.harvard.edu mpec at mpcdb1.cfa.harvard.edu
Wed Mar 6 10:43:17 EST 2019


M.P.E.C. 2019-E53                                Issued 2019 Mar. 6, 15:39 UT
 
     The Minor Planet Electronic Circulars contain information on unusual
         minor planets and routine data on comets.  They are published
    on behalf of Division F of the International Astronomical Union by the
          Minor Planet Center, Smithsonian Astrophysical Observatory,
                          Cambridge, MA 02138, U.S.A.

             Prepared using the Tamkin Foundation Computer Network

                              MPC at CFA.HARVARD.EDU
            URL https://www.minorplanetcenter.net/    ISSN 1523-6714


                                   2019 ED1
 
Observations:
     K19E01D* C2019 03 05.23495 08 57 22.92 +07 18 56.6          19.7 GVEE053703
     K19E01D  C2019 03 05.24017 08 57 23.19 +07 18 19.7          19.6 GVEE053703
     K19E01D  C2019 03 05.24538 08 57 23.62 +07 17 44.3          20.7 GVEE053703
     K19E01D  C2019 03 05.25060 08 57 23.92 +07 17 07.8          20.4 GVEE053703
     K19E01D  C2019 03 05.35157 08 57 31.50 +07 05 44.2          20.4 GVEE053703
     K19E01D  C2019 03 05.35302 08 57 31.60 +07 05 36.6                VEE053703
     K19E01D  C2019 03 05.35447 08 57 31.76 +07 05 25.3                VEE053703
     K19E01D  C2019 03 05.35591 08 57 31.91 +07 05 16.9                VEE053703
     K19E01D KC2019 03 05.80659908 59 20.22 +06 21 03.3          20.7 GVEE053L01
     K19E01D KC2019 03 05.80745708 59 20.28 +06 20 58.7          20.7 GVEE053L01
     K19E01D KC2019 03 05.81003708 59 20.38 +06 20 46.5          20.5 GVEE053L01
     K19E01D KC2019 03 05.81262808 59 20.54 +06 20 32.6          20.5 GVEE053L01
     K19E01D pC2019 03 05.81522308 59 20.72 +06 20 20.4          20.6 GVEE053L01
     K19E01D KC2019 03 05.88729 08 59 25.25 +06 14 28.4                VEE053104
     K19E01D KC2019 03 05.89120 08 59 26.12 +06 13 59.7                VEE053204
     K19E01D KC2019 03 05.90373 08 59 26.00 +06 13 08.1          20.3  VEE053104
     K19E01D KC2019 03 05.90411 08 59 26.72 +06 12 56.1          20.5 GVEE053204
     K19E01D KC2019 03 05.90672 08 59 26.15 +06 12 53.5          20.4  VEE053104
     K19E01D HC2019 03 05.91839 08 59 27.40 +06 11 46.2                VEE053204
     K19E01D KC2019 03 05.95778 08 59 29.30 +06 08 34.5          20.7 GVEE053587
     K19E01D KC2019 03 05.96105 08 59 29.49 +06 08 18.4                VEE053587
     K19E01D KC2019 03 05.96489 08 59 29.67 +06 08 00.3                VEE053587
     K19E01D KC2019 03 06.19974109 00 07.33 +05 50 56.2          20.8 VuEE053H21
     K19E01D KC2019 03 06.20730909 00 07.58 +05 50 23.9          20.6 VuEE053H21
     K19E01D KC2019 03 06.21435909 00 07.79 +05 49 53.3          20.7 VuEE053H21
 
Observer details:
104 San Marcello Pistoiese.  Observers P. Bacci, M. Maestripieri.  Measurers
    P. Bacci, L. Tesi, G. Fagioli.  0.60-m reflector + CCD.
204 Schiaparelli Observatory.  Observer L. Buzzi.  0.84-m f/3.5 reflector +
    CCD.
587 Sormano.  Observers A. Fumagalli, P. Sicoli, A. Testa.  Measurer
    P. Sicoli.  0.5-m f/6.8 reflector + CCD.
703 Catalina Sky Survey.  Observer B. M. Africano.  Measurers B. M. Africano,
    E. J. Christensen, G. A. Farneth, D. C. Fuls, A. R. Gibbs, A. D. Grauer,
    H. Groeller, R. A. Kowalski, S. M. Larson, G. J. Leonard, T. A. Pruyne,
    R. L. Seaman, F. C. Shelly.  0.68-m Schmidt + 10K CCD.
H21 Astronomical Research Observatory, Westfield.  Observer R. Holmes.
    Measurers S. Foglia, L. Buzzi, T. Linder, R. Holmes.  0.76-m f/3.0
    astrograph + CCD.
L01 Visnjan Observatory, Tican.  Observer K. Korlevic.  1.0-m f/2.9 reflector
    + CCD.
 
Orbital elements:
2019 ED1                                                 Earth MOID = 0.0019 AU
Epoch 2019 Apr. 27.0 TT = JDT 2458600.5                 MPC
M 154.46344              (2000.0)            P               Q
n   1.15189104     Peri.   53.82243     +0.81426444     -0.57974298
a   0.9012843      Node   341.55277     +0.49813731     +0.72394864
e   0.3292529      Incl.    5.35313     +0.29804805     +0.37389362
P   0.86           H   27.6           G   0.15           U   8
Residuals in seconds of arc
190305 703  0.5-  0.9+    190305 L01  0.6+  0.2-    190305 204  0.1+  0.2-
190305 703  1.1-  0.1-    190305 L01  0.3-  0.6+    190305 587  0.4+  0.7-
190305 703  0.7+  0.4+    190305 L01  0.2-  0.3-    190305 587  0.5+  1.0-
190305 703  0.5+  0.3-    190305 L01  0.2+  0.5+    190305 587  0.0   0.6-
190305 703  0.4+  1.4-    190305 104  0.8-  0.5+    190306 H21  0.5-  0.3-
190305 703  0.3-  0.6+    190305 204  0.3+  0.3+    190306 H21  0.1-  0.1+
190305 703  0.0   1.0-    190305 104  0.5-  1.0+    190306 H21  0.1-  0.2-
190305 703  0.0   0.1+    190305 204  0.1+  0.1-
190305 L01  0.5+  0.1+    190305 104  0.2-  1.0+

Ephemeris:
2019 ED1                 a,e,i = 0.90, 0.33, 5                   q = 0.6045
Date    TT    R. A. (2000) Decl.     Delta      r     Elong.  Phase     V
2019 02 04    21 14 25.1 -01 53 47   0.1506  0.8409    14.6   162.8
...
2019 02 19    21 13 27.0 +00 36 34   0.05929 0.9322    18.1   160.8    32.5
...
2019 02 27    21 24 39.5 +07 43 35   0.01492 0.9766    24.5   155.1    28.0
...
2019 03 05    08 56 29.1 +07 51 07   0.01858 1.0077   149.2    30.3    20.3
2019 03 06    08 59 42.1 +06 09 15   0.02406 1.0126   149.0    30.3    20.8
2019 03 07    09 01 47.4 +05 05 14   0.02957 1.0175   148.6    30.5    21.3
...
2019 03 13    09 07 48.5 +02 38 48   0.06297 1.0456   144.5    33.5    23.1
...
2019 03 21    09 13 13.0 +01 45 44   0.1086  1.0795   138.4    37.7    24.5
...
2019 04 05    09 25 45.4 +01 05 48   0.1980  1.1319   127.6    44.5    26.1

A. U. Tomatic                (C) Copyright 2019 MPC           M.P.E.C. 2019-E53



More information about the Iaude mailing list